Date String (YYYY-MM-DD hh:mm:ss) UTC,Instrument flags,absolute air pressure of the measurement (hPa),sample flow rate (lpm),inlet stack bypass flow (lpm),air temperature of the measurement (°C),ambient temperature measured by the external sensor (°C),aerosol sample conditioner tube jacket temperature (°C),OPC LED temperature (°C),internal box temperature (°C),relative humidity of the measurement (%),span deviation,mass concentration of particles derived from Lorenz-Mie calculation of OPC scattering (μg/m³),mass concentration of particles derived from Lorenz-Mie calculation of OPC scattering (μg/m³),mass concentration of particles derived from Lorenz-Mie calculation of OPC scattering (μg/m³)
DateTimeUTC,F1_M11,P_M11,Q1_M11,Q2_M11,T1_M11,T2_M11,T3_M11,T4_M11,T5_M11,U1_M11,ZSPAN_M11,X0_M11,X2_M11,X1_M11
2023-09-29 15:00:00,SystemResetWarning,0829.4,4.99,000.00,028.6,026.6,000.0,037.2,030.3,26.2,0000.0,0024.48,0007.26,0005.01
2023-09-29 15:01:00,SystemResetWarning,0829.3,5.00,000.00,028.6,026.8,000.0,037.2,030.4,26.3,0000.0,0024.92,0007.24,0005.00
2023-09-29 15:02:00,SystemResetWarning,0829.3,5.00,000.00,028.7,027.0,000.0,037.2,030.4,26.9,0000.0,0024.53,0007.16,0005.00
2023-09-29 15:03:00,SystemResetWarning,0829.4,5.00,000.00,028.7,027.1,000.0,037.2,030.4,27.6,0000.0,0023.79,0007.17,0004.97
2023-09-29 15:04:00,SystemResetWarning,0829.3,5.00,000.00,028.7,027.3,000.0,037.2,030.5,27.2,0000.0,0023.65,0007.17,0004.95
2023-09-29 15:05:00,SystemResetWarning,0829.4,5.00,000.00,028.7,027.4,000.0,037.2,030.5,27.2,0000.0,0023.33,0007.15,0004.92
2023-09-29 15:06:00,SystemResetWarning,0829.3,5.00,000.00,028.8,027.5,000.0,037.2,030.6,27.2,0000.6,0022.97,0007.18,0004.91
2023-09-29 15:07:00,SystemResetWarning,0829.3,5.00,000.00,028.8,027.6,000.0,037.3,030.6,27.0,0000.6,0022.68,0007.19,0004.88
2023-09-29 15:08:00,SystemResetWarning,0829.3,5.00,000.00,028.9,027.7,000.0,037.3,030.7,26.8,0000.4,0022.76,0007.21,0004.86
2023-09-29 15:09:00,SystemResetWarning,0829.4,5.00,000.00,028.9,027.5,000.0,037.3,030.7,26.7,0000.0,0022.00,0007.15,0004.84
2023-09-29 15:10:00,SystemResetWarning,0829.3,4.99,000.00,028.9,026.1,000.0,037.2,030.6,26.5,0000.0,0021.36,0007.10,0004.84
2023-09-29 15:11:00,SystemResetWarning,0829.3,5.01,000.00,028.8,024.9,000.0,037.1,030.4,26.7,0000.7,0021.37,0007.09,0004.84
2023-09-29 15:12:00,SystemResetWarning,0829.3,5.01,000.00,028.7,025.0,000.0,037.1,030.3,26.6,0000.7,0021.54,0007.01,0004.83
2023-09-29 15:13:00,SystemResetWarning,0829.3,5.00,000.00,028.6,025.2,000.0,037.1,030.2,26.9,0000.2,0020.99,0007.01,0004.81
2023-09-29 15:14:00,SystemResetWarning,0829.4,5.00,000.00,028.6,025.6,000.0,037.1,030.1,27.0,0000.1,0020.11,0006.89,0004.78
2023-09-29 15:15:00,SystemResetWarning,0829.3,5.00,000.00,028.6,026.0,000.0,037.1,030.2,27.1,0000.7,0018.95,0006.84,0004.76
2023-09-29 15:16:00,SystemResetWarning,0829.4,5.00,000.00,028.6,026.3,000.0,037.1,030.2,27.2,0000.0,0020.60,0006.81,0004.75
2023-09-29 15:17:00,SystemResetWarning,0829.3,5.00,000.00,028.6,026.6,000.0,037.1,030.3,27.3,0000.0,0021.71,0006.74,0004.74
2023-09-29 15:18:00,SystemResetWarning,0829.3,5.00,000.00,028.6,026.8,000.0,037.1,030.3,27.3,0000.0,0022.97,0006.71,0004.74
2023-09-29 15:19:00,SystemResetWarning,0829.3,4.99,000.00,028.6,027.0,000.0,037.1,030.4,26.6,0000.0,0023.78,0006.68,0004.73
2023-09-29 15:20:00,SystemResetWarning,0829.3,5.00,000.00,028.7,027.2,000.0,037.1,030.4,26.5,0000.0,0024.01,0006.64,0004.72
2023-09-29 15:21:00,SystemResetWarning,0829.3,5.00,000.00,028.7,027.3,000.0,037.2,030.5,26.3,0000.0,0024.42,0006.62,0004.71
2023-09-29 15:22:00,SystemResetWarning,0829.3,4.99,000.00,028.7,027.5,000.0,037.2,030.5,26.6,0000.0,0024.66,0006.61,0004.69
2023-09-29 15:23:00,SystemResetWarning,0829.3,5.00,000.00,028.8,027.6,000.0,037.2,030.6,26.6,0000.0,0025.18,0006.67,0004.68
2023-09-29 15:24:00,SystemResetWarning,0829.4,5.00,000.00,028.8,027.7,000.0,037.2,030.6,26.0,0000.0,0024.83,0006.72,0004.69
2023-09-29 15:25:00,SystemResetWarning,0829.4,5.01,000.00,028.8,027.7,000.0,037.2,030.6,26.0,0000.0,0024.12,0006.75,0004.71
2023-09-29 15:26:00,SystemResetWarning,0829.4,4.99,000.00,028.9,026.9,000.0,037.2,030.6,26.0,0000.0,0024.83,0006.73,0004.70
2023-09-29 15:27:00,SystemResetWarning,0829.3,5.00,000.00,028.8,025.2,000.0,037.1,030.4,26.3,0000.0,0023.21,0006.60,0004.68
2023-09-29 15:28:00,SystemResetWarning,0829.4,5.01,000.00,028.7,024.8,000.0,037.1,030.2,26.3,0000.0,0022.45,0006.60,0004.68
2023-09-29 15:29:00,SystemResetWarning,0829.3,5.00,000.00,028.6,025.0,000.0,037.1,030.1,26.1,0000.0,0020.39,0006.56,0004.67
2023-09-29 15:30:00,SystemResetWarning,0829.3,5.00,000.00,028.5,025.3,000.0,037.1,030.1,26.1,0000.0,0019.70,0006.54,0004.68
2023-09-29 15:31:00,SystemResetWarning,0829.4,5.01,000.00,028.5,025.7,000.0,037.1,030.1,26.1,0000.0,0020.76,0006.55,0004.70
2023-09-29 15:32:00,SystemResetWarning,0829.4,5.01,000.00,028.5,026.1,000.0,037.1,030.2,26.5,0000.0,0021.07,0006.55,0004.69
2023-09-29 15:33:00,SystemResetWarning,0829.4,4.98,000.00,028.5,026.4,000.0,037.1,030.2,26.5,0000.0,0022.07,0006.56,0004.69
2023-09-29 15:34:00,SystemResetWarning,0829.5,4.99,000.00,028.5,026.7,000.0,037.1,030.2,26.6,0000.0,0021.15,0006.55,0004.71
2023-09-29 15:35:00,SystemResetWarning,0829.5,5.01,000.00,028.6,026.9,000.0,037.1,030.3,26.1,0000.0,0021.21,0006.44,0004.71
2023-09-29 15:36:00,SystemResetWarning,0829.6,5.01,000.00,028.6,027.1,000.0,037.1,030.4,26.2,0000.0,0021.20,0006.40,0004.70
2023-09-29 15:37:00,SystemResetWarning,0829.6,4.99,000.00,028.6,027.3,000.0,037.1,030.4,26.3,0000.0,0020.36,0006.40,0004.72
2023-09-29 15:38:00,SystemResetWarning,0829.6,5.00,000.00,028.7,027.4,000.0,037.1,030.5,25.9,0000.0,0019.97,0006.42,0004.74
2023-09-29 15:39:00,SystemResetWarning,0829.6,5.01,000.00,028.7,027.5,000.0,037.1,030.5,25.3,0000.0,0020.67,0006.49,0004.77
2023-09-29 15:40:00,SystemResetWarning,0829.6,5.01,000.00,028.7,027.6,000.0,037.1,030.6,25.3,0000.0,0021.56,0006.52,0004.78
2023-09-29 15:41:00,SystemResetWarning,0829.6,4.99,000.00,028.8,027.7,000.0,037.2,030.6,25.2,0000.0,0021.63,0006.53,0004.79
2023-09-29 15:42:00,SystemResetWarning,0829.6,4.99,000.00,028.8,026.8,000.0,037.1,030.6,25.1,0000.0,0021.00,0006.55,0004.80
2023-09-29 15:43:00,SystemResetWarning,0829.5,5.00,000.00,028.7,025.1,000.0,037.1,030.3,25.0,0000.0,0020.40,0006.54,0004.81
2023-09-29 15:44:00,SystemResetWarning,0829.5,5.00,000.00,028.7,024.7,000.0,037.0,030.2,25.0,0000.5,0019.50,0006.56,0004.82
2023-09-29 15:45:00,SystemResetWarning,0829.5,5.01,000.00,028.6,024.9,000.0,037.0,030.1,25.2,0000.5,0018.76,0006.53,0004.82
2023-09-29 15:46:00,SystemResetWarning,0829.5,5.01,000.00,028.5,025.3,000.0,037.0,030.0,25.4,0000.6,0018.55,0006.55,0004.82
2023-09-29 15:47:00,SystemResetWarning,0829.5,4.99,000.00,028.5,025.6,000.0,037.0,030.1,25.5,0000.5,0018.63,0006.60,0004.82
2023-09-29 15:48:00,SystemResetWarning,0829.5,5.00,000.00,028.5,026.0,000.0,037.0,030.1,25.5,0000.7,0018.50,0006.59,0004.82
2023-09-29 15:49:00,SystemResetWarning,0829.5,5.00,000.00,028.5,026.3,000.0,037.0,030.2,25.4,0000.4,0018.35,0006.59,0004.81
2023-09-29 15:50:00,SystemResetWarning,0829.5,4.99,000.00,028.5,026.6,000.0,037.0,030.2,25.0,0000.5,0017.74,0006.62,0004.82
2023-09-29 15:51:00,SystemResetWarning,0829.5,5.00,000.00,028.5,026.8,000.0,037.0,030.3,24.6,0000.8,0017.75,0006.63,0004.83
2023-09-29 15:52:00,SystemResetWarning,0829.5,5.00,000.00,028.5,027.0,000.0,037.0,030.3,24.9,0000.9,0018.34,0006.63,0004.83
2023-09-29 15:53:00,SystemResetWarning,0829.6,5.00,000.00,028.6,027.2,000.0,037.0,030.4,25.0,0000.2,0019.19,0006.66,0004.84
2023-09-29 15:54:00,SystemResetWarning,0829.6,4.99,000.00,028.6,027.4,000.0,037.1,030.4,24.9,0000.0,0020.52,0006.68,0004.85
2023-09-29 15:55:00,SystemResetWarning,0829.6,5.00,000.00,028.7,027.5,000.0,037.1,030.5,24.9,0000.0,0020.59,0006.73,0004.86
2023-09-29 15:56:00,SystemResetWarning,0829.6,5.00,000.00,028.7,027.6,000.0,037.1,030.5,25.0,0000.0,0020.80,0006.76,0004.86
2023-09-29 15:57:00,SystemResetWarning,0829.6,4.98,000.00,028.7,026.5,000.0,037.1,030.5,25.3,0000.0,0021.15,0006.78,0004.89
2023-09-29 15:58:00,SystemResetWarning,0829.5,5.01,000.00,028.7,025.0,000.0,037.0,030.3,25.6,0000.0,0021.04,0006.77,0004.91
2023-09-29 15:59:00,SystemResetWarning,0829.5,5.02,000.00,028.6,024.6,000.0,036.9,030.2,25.6,0000.0,0021.62,0006.82,0004.92
